Weather History for Covington, KY

Change the Weather History Date:

Sunday, June 30, 2013

  Actual Average Record
Temperature  
Mean Temperature 73 °F 75 °F  
Max Temperature 80 °F 85 °F 98 °F (1953)
Min Temperature 65 °F 65 °F 47 °F (1923)
Degree Days  
Heating Degree Days 0 0  
Month to date heating degree days 1 12  
Since 1 June heating degree days 1 15  
Since 1 July heating degree days 4981 4975  
Cooling Degree Days 8 10  
Month to date cooling degree days 239 226  
Year to date cooling degree days 378 320  
Since 1 June cooling degree days 239 226  
Growing Degree Days 22 (Base 50)    
Moisture  
Dew Point 64 °F    
Average Humidity 79    
Maximum Humidity 100    
Minimum Humidity 58    
Precipitation  
Precipitation T in 0.12 in 1.36 in (1933)
Month to date precipitation 6.02 4.03  
Year to date precipitation 23.90 22.62  
Snow  
Snow 0.00 in 0.00 in 0.00 in ()
Month to date snowfall 0.0 0.0  
Since 1 June snowfall 0.0 0.0  
Since 1 July snowfall 25.2 22.1  
Snow Depth 0.00 in    
Sea Level Pressure  
Sea Level Pressure 29.73 in    
Wind  
Wind Speed 6 mph (WSW)    
Max Wind Speed 15 mph    
Max Gust Speed 18 mph    
Visibility 8 miles    
Events Rain    
T = Trace of Precipitation, MM = Missing Value Source: NWS Daily Summary

Daily Weather History Graph

Daily Weather History Graph

Search for Another Location

Airport:

Trip Planner

Search our weather history database for the weather conditions in past years. The results will help you decide how hot, cold, wet, or windy it might be!

Date:

Astronomy

Jun. 30, 2013 Rise Set
Actual Time 6:16 AM EDT 9:08 PM EDT
Civil Twilight 5:44 AM EDT 9:40 PM EDT
Nautical Twilight 5:03 AM EDT 10:20 PM EDT
Astronomical Twilight 4:17 AM EDT 11:06 PM EDT
Moon 1:12 AM EDT (6/30) 2:24 PM EDT (6/30)
Length of Visible Light 15h 56m
Length of Day
14h 52m
Last Quarter, 45% of the Moon is Illuminated
Jun 30
Last Quarter
Jul 8
New
Jul 15
First Quarter
Jul 22
Full
Jul 29
Last Quarter

Hourly Weather History & Observations

Time (EDT) Temp. Dew Point Humidity Pressure Visibility Wind Dir Wind Speed Gust Speed Precip Events Conditions
12:52 AM 66.0 °F 66.0 °F 100% 29.65 in 5.0 mi SSW 4.6 mph - N/A   Mostly Cloudy
1:52 AM 66.9 °F 66.0 °F 97% 29.68 in 5.0 mi Calm Calm - N/A   Mostly Cloudy
2:20 AM 66.2 °F 66.2 °F 100% 29.69 in 5.0 mi SSE 4.6 mph - N/A   Overcast
2:29 AM 66.2 °F 66.2 °F 100% 29.69 in 5.0 mi SSE 6.9 mph - N/A   Overcast
2:52 AM 66.0 °F 66.0 °F 100% 29.66 in 6.0 mi Calm Calm - N/A   Overcast
3:52 AM 66.0 °F 64.9 °F 96% 29.65 in 6.0 mi SSW 3.5 mph - N/A   Overcast
4:02 AM 66.2 °F 64.4 °F 94% 29.67 in 5.0 mi WSW 3.5 mph - N/A   Overcast
4:52 AM 64.9 °F 64.0 °F 97% 29.66 in 6.0 mi Calm Calm - N/A   Mostly Cloudy
5:52 AM 64.9 °F 64.0 °F 97% 29.68 in 6.0 mi WNW 4.6 mph - N/A   Overcast
6:07 AM 66.2 °F 64.4 °F 94% 29.70 in 7.0 mi Calm Calm - N/A   Overcast
6:52 AM 64.9 °F 64.0 °F 97% 29.70 in 4.0 mi SSW 3.5 mph - N/A   Overcast
6:59 AM 64.4 °F 64.4 °F 100% 29.72 in 4.0 mi Calm Calm - N/A   Overcast
7:52 AM 66.0 °F 64.0 °F 93% 29.72 in 5.0 mi Calm Calm - N/A   Overcast
8:52 AM 68.0 °F 64.0 °F 87% 29.73 in 9.0 mi South 4.6 mph - N/A   Mostly Cloudy
9:52 AM 71.1 °F 63.0 °F 75% 29.74 in 10.0 mi Calm Calm - N/A   Mostly Cloudy
10:52 AM 73.0 °F 64.9 °F 76% 29.75 in 10.0 mi West 4.6 mph - N/A   Scattered Clouds
11:52 AM 73.9 °F 64.9 °F 73% 29.75 in 10.0 mi SW 6.9 mph - N/A   Scattered Clouds
11:59 AM 73.4 °F 64.4 °F 73% 29.77 in 10.0 mi SSW 3.5 mph - N/A   Mostly Cloudy
12:43 PM 75.2 °F 62.6 °F 65% 29.77 in 10.0 mi Calm Calm - N/A   Scattered Clouds
12:52 PM 75.9 °F 63.0 °F 64% 29.75 in 10.0 mi South 5.8 mph - N/A   Scattered Clouds
1:52 PM 78.1 °F 63.0 °F 60% 29.75 in 10.0 mi Variable 5.8 mph - N/A   Mostly Cloudy
2:52 PM 79.0 °F 62.1 °F 56% 29.73 in 10.0 mi SW 5.8 mph - N/A   Scattered Clouds
3:52 PM 78.1 °F 66.0 °F 66% 29.74 in 10.0 mi NNW 11.5 mph - N/A   Mostly Cloudy
4:52 PM 77.0 °F 66.9 °F 71% 29.75 in 9.0 mi North 10.4 mph - 0.00 in Rain Light Rain
5:52 PM 78.1 °F 63.0 °F 60% 29.76 in 10.0 mi NW 9.2 mph - 0.00 in   Mostly Cloudy
6:52 PM 77.0 °F 64.0 °F 64% 29.77 in 10.0 mi NNE 10.4 mph - N/A   Mostly Cloudy
7:52 PM 75.0 °F 64.0 °F 69% 29.78 in 10.0 mi NNE 9.2 mph - N/A   Mostly Cloudy
8:52 PM 73.0 °F 64.0 °F 73% 29.79 in 10.0 mi NE 10.4 mph - N/A   Scattered Clouds
9:52 PM 72.0 °F 64.9 °F 78% 29.80 in 10.0 mi NNE 12.7 mph - N/A   Scattered Clouds
10:52 PM 70.0 °F 64.9 °F 84% 29.82 in 10.0 mi NNE 10.4 mph - N/A   Partly Cloudy
11:52 PM 70.0 °F 64.9 °F 84% 29.82 in 10.0 mi NE 8.1 mph - N/A   Scattered Clouds